[Iaude] MPEC V75: 2016 VO2 [a=1.57,e=0.52,i=9.1,H=26.7]

mpec at si.edu mpec at si.edu
Tue Nov 8 19:29:55 EST 2016


M.P.E.C. 2016-V75                                Issued 2016 Nov.  9, 00:25 UT
 
     The Minor Planet Electronic Circulars contain information on unusual
         minor planets and routine data on comets.  They are published
    on behalf of Division F of the International Astronomical Union by the
          Minor Planet Center, Smithsonian Astrophysical Observatory,
                          Cambridge, MA 02138, U.S.A.

             Prepared using the Tamkin Foundation Computer Network

                              MPC at CFA.HARVARD.EDU
            URL http://www.minorplanetcenter.net/    ISSN 1523-6714


                                   2016 VO2
 
Observations:
     K16V02O* C2016 11 06.38876 03 42 21.90 +28 55 29.5          20.1 VqEV075G96
     K16V02O  C2016 11 06.39424 03 42 19.47 +28 53 00.7          20.1 VqEV075G96
     K16V02O  C2016 11 06.40567 03 42 14.58 +28 47 53.8          19.8 VqEV075G96
     K16V02O  C2016 11 06.41678 03 42 09.80 +28 42 55.6          19.8 VqEV075G96
     K16V02O  C2016 11 06.46186 03 41 51.50 +28 23 00.9          19.4 VqEV075G96
     K16V02O  C2016 11 06.46272 03 41 51.05 +28 22 38.6          20.4 VqEV075G96
     K16V02O  C2016 11 06.46313 03 41 50.88 +28 22 28.4          20.9 VqEV075G96
     K16V02O  C2016 11 07.26216 03 38 37.50 +23 30 29.1          20.3 RoEV075926
     K16V02O  C2016 11 07.26517 03 38 36.64 +23 29 33.6          20.3 RoEV075926
     K16V02O  C2016 11 07.26818 03 38 35.72 +23 28 38.3          20.2 RoEV075926
     K16V02O  C2016 11 07.33645 03 38 15.53 +23 07 48.9          20.6 VqEV075G96
     K16V02O  C2016 11 07.33686 03 38 15.41 +23 07 42.3          20.4 VqEV075G96
     K16V02O  C2016 11 07.33727 03 38 15.31 +23 07 34.8          20.4 VqEV075G96
     K16V02O  C2016 11 07.33772 03 38 15.17 +23 07 26.7          20.1 VqEV075G96
     K16V02O KC2016 11 08.11226 03 35 54.01 +19 43 35.6                qEV075J95
     K16V02O KC2016 11 08.12758 03 35 51.02 +19 40 06.9          20.7 RqEV075J95
     K16V02O  C2016 11 08.42072 03 35 08.47 +18 37 59.4          20.7 RoEV075926
     K16V02O  C2016 11 08.42398 03 35 07.86 +18 37 18.7          21.2 RoEV075926
     K16V02O  C2016 11 08.42725 03 35 07.20 +18 36 37.8          21.2 RoEV075926
 
Observer details:
926 Tenagra II Observatory.  Observers M. Schwartz, P. R. Holvorcem.  Measurer
    M. Schwartz.  0.81-m f/7 Ritchey-Chretien + CCD.
G96 Mt. Lemmon Survey.  Observer R. A. Kowalski.  Measurers E. J. Christensen,
    D. C. Fuls, A. R. Gibbs, A. D. Grauer, J. A. Johnson, R. A. Kowalski,
    S. M. Larson, G. J. Leonard, R. G. Matheny, R. L. Seaman, F. C. Shelly.
    1.5-m reflector + 10K CCD.
J95 Great Shefford.  Observer P. Birtwhistle.  0.40-m f/6.0 Schmidt-Cassegrain
    + CCD.
 
Orbital elements:
2016 VO2                                                 Earth MOID = 0.0150 AU
Epoch 2016 July 31.0 TT = JDT 2457600.5                 MPC
M 336.46492              (2000.0)            P               Q
n   0.49888918     Peri.  102.54097     +0.84856389     +0.51638214
a   1.5744661      Node   226.50297     -0.52580523     +0.79878096
e   0.5165911      Incl.    9.14381     -0.05889138     +0.30870448
P   1.98           H   26.7           G   0.15           U   6
Residuals in seconds of arc
161106 G96  0.1+  1.0+    161107 926  0.2+  0.0     161108 J95  0.3-  0.7-
161106 G96  0.4-  0.3-    161107 926  0.6+  0.1-    161108 J95  0.9-  1.0+
161106 G96  0.2+  0.3-    161107 926  0.2+  0.1-    161108 926  1.2+  0.2-
161106 G96  0.5-  1.2-    161107 G96  0.1+  0.7-    161108 926  1.3+  0.3-
161106 G96  1.1+  0.1-    161107 G96  0.1+  0.2+    161108 926  0.7+  0.4-
161106 G96  0.4-  0.2+    161107 G96  0.4+  0.1+
161106 G96  0.5-  0.8+    161107 G96  0.3+  0.1+

Ephemeris:
2016 VO2                 a,e,i = 1.57, 0.52, 9                   q = 0.7611
Date    TT    R. A. (2000) Decl.     Delta      r     Elong.  Phase     V
2016 10 10    15 13 32.7 +04 16 56   0.2148  0.8306    34.5   137.0    29.4
...
2016 10 25    15 15 52.2 +13 10 02   0.07964 0.9276    31.7   145.7    28.7
...
2016 11 02    14 20 06.4 +62 29 19   0.01922 0.9882    77.2   101.7    21.8
...
2016 11 08    03 36 15.9 +20 11 32   0.04597 1.0359   169.2    10.3    20.7
2016 11 09    03 34 03.8 +16 50 37   0.05412 1.0440   171.2     8.3    21.0
2016 11 10    03 32 28.3 +14 22 41   0.06244 1.0521   172.0     7.5    21.3
...
2016 11 16    03 27 55.2 +07 24 25   0.1143  1.1012   168.7    10.2    22.9
...
2016 11 24    03 25 58.7 +04 36 46   0.1876  1.1673   162.1    15.0    24.2
...
2016 12 09    03 27 28.4 +03 54 44   0.3397  1.2902   150.0    22.5    26.0

A. U. Tomatic                (C) Copyright 2016 MPC           M.P.E.C. 2016-V75




More information about the Iaude mailing list